This demonstration page uses our WeatherBlox Daily Observations layout. Learn more.

Left ArrowRight Arrow

41.55636, -103.73856

Hourly Observations for July 15, 2018

Temp ( °F °C ) Dew Point ( °F °C ) Humidity (%) Winds ( mph kmh ) Pressure ( in mb ) Visibility ( mi km ) Precip ( " mm )
12:58 am 00:58 Mostly Cloudy 70 21.3 56 13.3 60 60 SSE 9 15 30.00 1016 10 16 N/A
1:58 am 01:58 Mostly Cloudy 70 21 56 13.5 62 62 S 9 15 29.99 1016 10 16 N/A
2:58 am 02:58 Cloudy 69 20.7 57 13.8 65 65 S 7 11 30.00 1016 10 16 N/A
3:58 am 03:58 Mostly Cloudy 67 19.2 57 14.1 72 72 NE 12 19 30.01 1016 10 16 N/A
4:58 am 04:58 Cloudy 68 20.1 57 13.7 67 67 NE 14 22 30.03 1017 10 16 N/A
5:58 am 05:58 Mostly Cloudy 65 18.6 58 14.3 76 76 NE 18 30 30.05 1018 10 16 N/A
6:58 am 06:58 Mostly Cloudy 64 17.6 59 14.8 84 84 NE 20 31 30.09 1019 10 16 N/A
7:58 am 07:58 Cloudy 63 17.4 58 14.6 84 84 NE 20 31 30.12 1020 10 16 N/A
8:58 am 08:58 Cloudy 62 16.9 57 14 83 83 ENE 20 31 30.17 1022 10 16 N/A
9:58 am 09:58 Cloudy 64 17.7 56 13.5 77 77 NE 17 28 30.18 1022 10 16 N/A
10:58 am 10:58 Cloudy 63 17.3 57 13.7 80 80 NNE 13 20 30.21 1023 10 16 N/A
11:58 am 11:58 Mostly Cloudy 67 19.4 56 13.2 68 68 E 13 20 30.20 1023 10 16 N/A
12:58 pm 12:58 Mostly Cloudy 67 19.4 55 13 67 67 ENE 10 17 30.20 1023 10 16 N/A
1:58 pm 13:58 Mostly Cloudy 68 19.8 56 13.4 67 67 NNE 9 15 30.20 1023 10 16 N/A
2:58 pm 14:58 Cloudy with Light Rain 67 19.2 57 14.1 72 72 NNE 5 7 30.18 1022 10 16 N/A
3:58 pm 15:58 Cloudy with Showers 65 18.1 57 14 77 77 S 6 9 30.17 1022 10 16 0.03 0.76
4:58 pm 16:58 Sunny 66 18.8 58 14.5 76 76 SSW 8 13 30.14 1021 10 16 0.01 0.25
5:58 pm 17:58 Sunny 68 19.8 58 14.2 70 70 SW 7 11 30.13 1020 10 16 N/A
6:58 pm 18:58 Sunny 68 20 57 14 69 69 SSW 9 15 30.13 1020 10 16 N/A
7:58 pm 19:58 Sunny 67 19.5 57 13.8 70 70 S 7 11 30.13 1020 10 16 N/A
8:58 pm 20:58 Clear 62 16.4 57 13.9 85 85 SW 8 13 30.16 1021 10 16 N/A
9:58 pm 21:58 Clear 59 15 57 14 94 94 SW 6 9 30.19 1022 10 16 N/A
10:58 pm 22:58 Clear 58 14.3 55 13 92 92 SW 7 11 30.17 1022 10 16 N/A
11:58 pm 23:58 Clear 57 13.7 55 12.8 94 94 SW 7 11 30.15 1021 10 16 N/A

Powered by AerisWeather